Time,TemperatureF,DewpointF,PressureIn,WindDirection,WindDirectionDegrees,WindSpeedMPH,WindSpeedGustMPH,Humidity,HourlyPrecipIn,Conditions,Clouds,dailyrainin,SolarRadiationWatts/m^2,SoftwareType,DateUTC
2013-08-11 00:02:00,75.0,73.0,-100.00,SSW,204,1.0,3.0,94,0.00,,,0.58,0.000000,,2013-08-11 05:02:00,
2013-08-11 00:25:00,75.0,74.0,-100.00,North,11,1.0,3.0,96,0.00,,,0.58,0.000000,,2013-08-11 05:25:00,
2013-08-11 00:38:00,75.0,74.0,-100.00,North,11,1.0,3.0,96,0.00,,,0.58,0.000000,,2013-08-11 05:38:00,
2013-08-11 00:50:00,75.0,74.0,-100.00,North,11,1.0,3.0,96,0.00,,,0.58,0.000000,,2013-08-11 05:50:00,
2013-08-11 00:57:00,75.0,74.0,-100.00,North,11,1.0,3.0,96,0.00,,,0.58,0.000000,,2013-08-11 05:57:00,
2013-08-11 01:03:00,74.0,73.0,-100.00,South,170,3.0,5.0,97,0.00,,,0.58,0.000000,,2013-08-11 06:03:00,
2013-08-11 01:27:00,74.0,73.0,-100.00,South,170,3.0,5.0,97,0.00,,,0.58,0.000000,,2013-08-11 06:27:00,
2013-08-11 01:38:00,74.0,73.0,-100.00,South,170,3.0,5.0,97,0.00,,,0.58,0.000000,,2013-08-11 06:38:00,
2013-08-11 01:49:00,74.0,73.0,-100.00,South,170,3.0,5.0,97,0.00,,,0.58,0.000000,,2013-08-11 06:49:00,
2013-08-11 01:57:00,74.0,73.0,-100.00,South,170,3.0,5.0,97,0.00,,,0.58,0.000000,,2013-08-11 06:57:00,
2013-08-11 02:03:00,74.0,72.0,-100.00,SSE,154,3.0,6.0,92,0.00,,,0.58,0.000000,,2013-08-11 07:03:00,
2013-08-11 02:26:00,74.0,72.0,-100.00,SSE,154,3.0,6.0,92,0.00,,,0.58,0.000000,,2013-08-11 07:26:00,
2013-08-11 02:37:00,74.0,72.0,-100.00,SSE,154,3.0,6.0,92,0.00,,,0.58,0.000000,,2013-08-11 07:37:00,
2013-08-11 02:47:00,74.0,72.0,-100.00,SSE,154,3.0,6.0,92,0.00,,,0.58,0.000000,,2013-08-11 07:47:00,
2013-08-11 02:56:00,74.0,72.0,-100.00,SSE,154,3.0,6.0,92,0.00,,,0.58,0.000000,,2013-08-11 07:56:00,
2013-08-11 03:03:00,73.0,71.0,-100.00,East,98,2.0,4.0,94,0.00,,,0.58,0.000000,,2013-08-11 08:03:00,
2013-08-11 03:27:00,73.0,71.0,-100.00,East,98,2.0,4.0,94,0.00,,,0.58,0.000000,,2013-08-11 08:27:00,
2013-08-11 03:37:00,73.0,71.0,-100.00,East,98,2.0,4.0,94,0.00,,,0.58,0.000000,,2013-08-11 08:37:00,
2013-08-11 03:49:00,73.0,71.0,-100.00,East,98,2.0,4.0,94,0.00,,,0.58,0.000000,,2013-08-11 08:49:00,
2013-08-11 03:59:00,73.0,71.0,-100.00,East,98,2.0,4.0,94,0.00,,,0.58,0.000000,,2013-08-11 08:59:00,
2013-08-11 04:03:00,73.0,72.0,-100.00,West,268,1.0,2.0,96,0.00,,,0.58,0.000000,,2013-08-11 09:03:00,
2013-08-11 04:30:00,73.0,72.0,-100.00,West,268,1.0,2.0,96,0.00,,,0.58,0.000000,,2013-08-11 09:30:00,
2013-08-11 04:36:00,73.0,72.0,-100.00,West,268,1.0,2.0,96,0.00,,,0.58,0.000000,,2013-08-11 09:36:00,
2013-08-11 04:44:00,73.0,72.0,-100.00,West,268,1.0,2.0,96,0.00,,,0.58,0.000000,,2013-08-11 09:44:00,
2013-08-11 05:01:00,73.0,72.0,-100.00,West,268,1.0,2.0,96,0.00,,,0.58,0.000000,,2013-08-11 10:01:00,
2013-08-11 05:03:00,72.0,71.0,-100.00,NW,305,1.0,3.0,97,0.00,,,-99.99,0.000000,,2013-08-11 10:03:00,
2013-08-11 05:29:00,72.0,71.0,-100.00,NW,305,1.0,3.0,97,0.00,,,-99.99,0.000000,,2013-08-11 10:29:00,
2013-08-11 05:38:00,72.0,71.0,-100.00,NW,305,1.0,3.0,97,0.00,,,-99.99,0.000000,,2013-08-11 10:38:00,
2013-08-11 05:47:00,72.0,71.0,-100.00,NW,305,1.0,3.0,97,0.00,,,-99.99,0.000000,,2013-08-11 10:47:00,
2013-08-11 05:57:00,72.0,71.0,-100.00,NW,305,1.0,3.0,97,0.00,,,-99.99,0.000000,,2013-08-11 10:57:00,
2013-08-11 06:03:00,72.0,71.0,-100.00,NNW,341,2.0,3.0,98,0.00,,,-99.99,0.000000,,2013-08-11 11:03:00,
2013-08-11 06:24:00,72.0,71.0,-100.00,NNW,341,2.0,3.0,98,0.00,,,-99.99,0.000000,,2013-08-11 11:24:00,
2013-08-11 06:59:00,72.0,71.0,-100.00,NNW,341,2.0,3.0,98,0.00,,,-99.99,0.000000,,2013-08-11 11:59:00,
2013-08-11 07:03:00,72.0,71.0,-100.00,NNE,27,2.0,4.0,98,0.00,,,-99.99,4.000000,,2013-08-11 12:03:00,
2013-08-11 07:31:00,72.0,71.0,-100.00,NNE,27,2.0,4.0,98,0.00,,,-99.99,4.000000,,2013-08-11 12:31:00,
2013-08-11 07:37:00,72.0,71.0,-100.00,NNE,27,2.0,4.0,98,0.00,,,-99.99,4.000000,,2013-08-11 12:37:00,
2013-08-11 07:47:00,72.0,71.0,-100.00,NNE,27,2.0,4.0,98,0.00,,,-99.99,4.000000,,2013-08-11 12:47:00,
2013-08-11 07:56:00,72.0,71.0,-100.00,NNE,27,2.0,4.0,98,0.00,,,-99.99,4.000000,,2013-08-11 12:56:00,
2013-08-11 08:27:00,75.0,73.0,-100.00,ESE,108,2.0,4.0,92,0.00,,,-99.99,85.000000,,2013-08-11 13:27:00,
2013-08-11 08:40:00,75.0,73.0,-100.00,ESE,108,2.0,4.0,92,0.00,,,-99.99,85.000000,,2013-08-11 13:40:00,
2013-08-11 08:48:00,75.0,73.0,-100.00,ESE,108,2.0,4.0,92,0.00,,,-99.99,85.000000,,2013-08-11 13:48:00,
2013-08-11 08:58:00,75.0,73.0,-100.00,ESE,108,2.0,4.0,92,0.00,,,-99.99,85.000000,,2013-08-11 13:58:00,
2013-08-11 09:24:00,80.0,74.0,-100.00,SE,131,4.0,7.0,83,0.00,,,0.58,317.000000,,2013-08-11 14:24:00,
2013-08-11 09:36:00,80.0,74.0,-100.00,SE,131,4.0,7.0,83,0.00,,,0.58,317.000000,,2013-08-11 14:36:00,
2013-08-11 09:49:00,80.0,74.0,-100.00,SE,131,4.0,7.0,83,0.00,,,0.58,317.000000,,2013-08-11 14:49:00,
2013-08-11 09:57:00,80.0,74.0,-100.00,SE,131,4.0,7.0,83,0.00,,,0.58,317.000000,,2013-08-11 14:57:00,
2013-08-11 10:03:00,84.0,76.0,-100.00,SE,138,3.0,8.0,78,0.00,,,0.58,511.000000,,2013-08-11 15:03:00,
2013-08-11 10:24:00,84.0,76.0,-100.00,SE,138,3.0,8.0,78,0.00,,,0.58,511.000000,,2013-08-11 15:24:00,
2013-08-11 10:49:00,84.0,76.0,-100.00,SE,138,3.0,8.0,78,0.00,,,0.58,511.000000,,2013-08-11 15:49:00,
2013-08-11 11:00:00,84.0,76.0,-100.00,SE,138,3.0,8.0,78,0.00,,,0.58,511.000000,,2013-08-11 16:00:00,
2013-08-11 11:03:00,87.0,76.0,-100.00,SE,126,5.0,8.0,70,0.00,,,0.58,635.000000,,2013-08-11 16:03:00,
2013-08-11 11:29:00,87.0,76.0,-100.00,SE,126,5.0,8.0,70,0.00,,,0.58,635.000000,,2013-08-11 16:29:00,
2013-08-11 11:41:00,87.0,76.0,-100.00,SE,126,5.0,8.0,70,0.00,,,0.58,635.000000,,2013-08-11 16:41:00,
2013-08-11 11:47:00,87.0,76.0,-100.00,SE,126,5.0,8.0,70,0.00,,,0.58,635.000000,,2013-08-11 16:47:00,
2013-08-11 11:58:00,87.0,76.0,-100.00,SE,126,5.0,8.0,70,0.00,,,0.58,635.000000,,2013-08-11 16:58:00,
2013-08-11 12:03:00,89.0,76.0,-100.00,SSW,196,3.0,6.0,65,0.00,,,0.58,709.000000,,2013-08-11 17:03:00,
2013-08-11 12:38:00,89.0,76.0,-100.00,SSW,196,3.0,6.0,65,0.00,,,0.58,709.000000,,2013-08-11 17:38:00,
2013-08-11 12:58:00,89.0,76.0,-100.00,SSW,196,3.0,6.0,65,0.00,,,0.58,709.000000,,2013-08-11 17:58:00,
2013-08-11 13:30:00,93.0,73.0,-100.00,WNW,293,4.0,9.0,52,0.00,,,0.58,1010.000000,,2013-08-11 18:30:00,
2013-08-11 13:49:00,93.0,73.0,-100.00,WNW,293,4.0,9.0,52,0.00,,,0.58,1010.000000,,2013-08-11 18:49:00,
2013-08-11 13:57:00,93.0,73.0,-100.00,WNW,293,4.0,9.0,52,0.00,,,0.58,1010.000000,,2013-08-11 18:57:00,
2013-08-11 14:03:00,95.0,71.0,-100.00,NNE,19,4.0,9.0,46,0.00,,,0.58,1024.000000,,2013-08-11 19:03:00,
2013-08-11 14:27:00,95.0,71.0,-100.00,NNE,19,4.0,9.0,46,0.00,,,0.58,1024.000000,,2013-08-11 19:27:00,
2013-08-11 14:35:00,95.0,71.0,-100.00,NNE,19,4.0,9.0,46,0.00,,,0.58,1024.000000,,2013-08-11 19:35:00,
2013-08-11 14:51:00,95.0,71.0,-100.00,NNE,19,4.0,9.0,46,0.00,,,0.58,1024.000000,,2013-08-11 19:51:00,
2013-08-11 15:03:00,96.0,70.0,-100.00,NE,56,5.0,10.0,43,0.00,,,0.58,974.000000,,2013-08-11 20:03:00,
2013-08-11 15:28:00,96.0,70.0,-100.00,NE,56,5.0,10.0,43,0.00,,,0.58,974.000000,,2013-08-11 20:28:00,
2013-08-11 15:40:00,96.0,70.0,-100.00,NE,56,5.0,10.0,43,0.00,,,0.58,974.000000,,2013-08-11 20:40:00,
2013-08-11 15:50:00,96.0,70.0,-100.00,NE,56,5.0,10.0,43,0.00,,,0.58,974.000000,,2013-08-11 20:50:00,
2013-08-11 15:58:00,96.0,70.0,-100.00,NE,56,5.0,10.0,43,0.00,,,0.58,974.000000,,2013-08-11 20:58:00,
2013-08-11 16:03:00,97.0,69.0,-100.00,SE,145,4.0,9.0,41,0.00,,,0.58,842.000000,,2013-08-11 21:03:00,
2013-08-11 16:27:00,97.0,69.0,-100.00,SE,145,4.0,9.0,41,0.00,,,0.58,842.000000,,2013-08-11 21:27:00,
2013-08-11 16:36:00,97.0,69.0,-100.00,SE,145,4.0,9.0,41,0.00,,,0.58,842.000000,,2013-08-11 21:36:00,
2013-08-11 16:49:00,97.0,69.0,-100.00,SE,145,4.0,9.0,41,0.00,,,0.58,842.000000,,2013-08-11 21:49:00,
2013-08-11 16:59:00,97.0,69.0,-100.00,SE,145,4.0,9.0,41,0.00,,,0.58,842.000000,,2013-08-11 21:59:00,
2013-08-11 17:36:00,93.0,66.0,-100.00,SE,135,9.0,14.0,41,0.00,,,0.58,581.000000,,2013-08-11 22:36:00,
2013-08-11 17:47:00,93.0,66.0,-100.00,SE,135,9.0,14.0,41,0.00,,,0.58,581.000000,,2013-08-11 22:47:00,
2013-08-11 17:58:00,93.0,66.0,-100.00,SE,135,9.0,14.0,41,0.00,,,0.58,581.000000,,2013-08-11 22:58:00,
2013-08-11 18:03:00,91.0,69.0,-100.00,South,172,8.0,13.0,49,0.00,,,0.01,323.000000,,2013-08-11 23:03:00,
2013-08-11 18:30:00,91.0,69.0,-100.00,South,172,8.0,13.0,49,0.00,,,0.01,323.000000,,2013-08-11 23:30:00,
2013-08-11 18:37:00,91.0,69.0,-100.00,South,172,8.0,13.0,49,0.00,,,0.01,323.000000,,2013-08-11 23:37:00,
2013-08-11 18:57:00,91.0,69.0,-100.00,South,172,8.0,13.0,49,0.00,,,0.01,323.000000,,2013-08-11 23:57:00,
2013-08-11 19:03:00,87.0,73.0,-100.00,South,173,5.0,13.0,64,0.00,,,0.00,259.000000,,2013-08-12 00:03:00,
2013-08-11 19:26:00,87.0,73.0,-100.00,South,173,5.0,13.0,64,0.00,,,0.00,259.000000,,2013-08-12 00:26:00,
2013-08-11 19:38:00,87.0,73.0,-100.00,South,173,5.0,13.0,64,0.00,,,0.00,259.000000,,2013-08-12 00:38:00,
2013-08-11 19:58:00,87.0,73.0,-100.00,South,173,5.0,13.0,64,0.00,,,0.00,259.000000,,2013-08-12 00:58:00,
2013-08-11 20:03:00,84.0,73.0,-100.00,South,176,3.0,11.0,69,0.00,,,0.00,51.000000,,2013-08-12 01:03:00,
2013-08-11 20:26:00,84.0,73.0,-100.00,South,176,3.0,11.0,69,0.00,,,0.00,51.000000,,2013-08-12 01:26:00,
2013-08-11 20:40:00,84.0,73.0,-100.00,South,176,3.0,11.0,69,0.00,,,0.00,51.000000,,2013-08-12 01:40:00,
2013-08-11 20:48:00,84.0,73.0,-100.00,South,176,3.0,11.0,69,0.00,,,0.00,51.000000,,2013-08-12 01:48:00,
2013-08-11 20:56:00,84.0,73.0,-100.00,South,176,3.0,11.0,69,0.00,,,0.00,51.000000,,2013-08-12 01:56:00,
2013-08-11 21:03:00,81.0,73.0,-100.00,South,172,1.0,5.0,76,0.00,,,0.00,1.000000,,2013-08-12 02:03:00,
2013-08-11 21:25:00,81.0,73.0,-100.00,South,172,1.0,5.0,76,0.00,,,0.00,1.000000,,2013-08-12 02:25:00,
2013-08-11 21:37:00,81.0,73.0,-100.00,South,172,1.0,5.0,76,0.00,,,0.00,1.000000,,2013-08-12 02:37:00,
2013-08-11 21:49:00,81.0,73.0,-100.00,South,172,1.0,5.0,76,0.00,,,0.00,1.000000,,2013-08-12 02:49:00,
2013-08-11 21:59:00,81.0,73.0,-100.00,South,172,1.0,5.0,76,0.00,,,0.00,1.000000,,2013-08-12 02:59:00,
2013-08-11 22:25:00,80.0,73.0,-100.00,SSE,152,1.0,4.0,80,0.00,,,0.00,0.000000,,2013-08-12 03:25:00,
2013-08-11 22:39:00,80.0,73.0,-100.00,SSE,152,1.0,4.0,80,0.00,,,0.00,0.000000,,2013-08-12 03:39:00,
2013-08-11 22:48:00,80.0,73.0,-100.00,SSE,152,1.0,4.0,80,0.00,,,0.00,0.000000,,2013-08-12 03:48:00,
2013-08-11 23:00:00,80.0,73.0,-100.00,SSE,152,1.0,4.0,80,0.00,,,0.00,0.000000,,2013-08-12 04:00:00,
2013-08-11 23:02:00,80.0,73.0,-100.00,SSE,152,1.0,4.0,80,0.00,,,0.00,0.000000,,2013-08-12 04:02:00,
2013-08-11 23:22:00,79.0,74.0,-100.00,WNW,283,0.0,3.0,84,0.00,,,0.00,0.000000,,2013-08-12 04:22:00,
2013-08-11 23:33:00,79.0,74.0,-100.00,WNW,283,0.0,3.0,84,0.00,,,0.00,0.000000,,2013-08-12 04:33:00,
2013-08-11 23:43:00,79.0,74.0,-100.00,WNW,283,0.0,3.0,84,0.00,,,0.00,0.000000,,2013-08-12 04:43:00,
2013-08-11 23:52:00,79.0,74.0,-100.00,WNW,283,0.0,3.0,84,0.00,,,0.00,0.000000,,2013-08-12 04:52:00,